828  
ASUS43 KOAX 141210  
RWRNE  
 
WEATHER ROUNDUP FOR NEBRASKA  
NATIONAL WEATHER SERVICE OMAHA NE  
700 AM CDT FRI MAY 14 2021  
 
NOTES: SATELLITE DATA IS BEING USED TO AUGMENT CLOUD COVER ABOVE  
12000 FEET.  
"FAIR" INDICATES FEW OR NO CLOUDS BELOW 12,000 FEET WITH NO  
SIGNIFICANT WEATHER AND/OR S TO VISIBILITY
.  
 
 
NEZ001>004-019>022-054>056-141300-  
NEBRASKA PANHANDLE  
 
CITY SKY/WX TMP DP RH WIND PRES REMARKS
 
SCOTTSBLUFF PTCLDY 42 39 89 NW8 30.11F  
6HR MIN TEMP: 42; 6HR MAX TEMP: 48;  
 
ALLIANCE CLEAR 35 34 96 CALM 30.11S  
6HR MIN TEMP: 34; 6HR MAX TEMP: 43;  
 
CHADRON CLEAR 36 34 92 CALM 30.12S FOG  
6HR MIN TEMP: 34; 6HR MAX TEMP: 43;  
 
GORDON CLEAR 35 35 98 W3 30.10S  
6HR MIN TEMP: 34; 6HR MAX TEMP: 40;  
 
KIMBALL PTCLDY 43 41 95 NW5 30.13R  
SIDNEY PTCLDY 43 42 97 N8 30.09R FOG  
6HR MIN TEMP: 38; 6HR MAX TEMP: 49;  
 

 
 
NEZ057>060-069>072-079>082-141300-  
SOUTHWEST NEBRASKA  
 
CITY SKY/WX TMP DP RH WIND PRES REMARKS
 
NORTH PLATTE CLEAR 50 46 86 S6 30.08S  
6HR MIN TEMP: 49; 6HR MAX TEMP: 54;  
 
IMPERIAL CLEAR 45 44 97 SE7 30.08S  
6HR MIN TEMP: 45; 6HR MAX TEMP: 53;  
 
LEXINGTON CLEAR 50 47 89 S16 30.08R  
MCCOOK CLEAR 49 45 86 S6 30.09R  
6HR MIN TEMP: 49; 6HR MAX TEMP: 57;  
 
OGALLALA PTCLDY 42 41 98 CALM 30.09S  

 
 
NEZ005>010-023>029-035>040-094-141300-  
NORTH CENTRAL NEBRASKA  
 
CITY SKY/WX TMP DP RH WIND PRES REMARKS
 
VALENTINE MOCLDY 44 42 93 SW8 30.08S FOG  
6HR MIN TEMP: 44; 6HR MAX TEMP: 53;  
 
AINSWORTH CLOUDY 50 49 95 SW8 30.09S FOG  
BROKEN BOW CLEAR 45 44 97 CALM 30.10R  
6HR MIN TEMP: 45; 6HR MAX TEMP: 55;  
 
O'NEILL MOCLDY 48 46 93 S6 30.10S  
ORD CLEAR 42 41 96 S3 30.11R  
6HR MIN TEMP: 41; 6HR MAX TEMP: 53;  
 

 
 
NEZ041-046>049-061>064-073>077-083>087-141300-  
SOUTH CENTRAL NEBRASKA  
 
CITY SKY/WX TMP DP RH WIND PRES REMARKS
 
GRAND ISLAND CLEAR 49 46 90 E3 30.13R  
6HR MIN TEMP: 48; 6HR MAX TEMP: 54;  
 
AURORA PTCLDY 51 48 90 SE5 30.12R  
HASTINGS CLEAR 53 48 83 S6 30.12R  
6HR MIN TEMP: 51; 6HR MAX TEMP: 54;  
 
HEBRON CLEAR 53 49 87 S7 30.13F  
HOLDREGE CLEAR 51 48 90 S17 30.08S  
KEARNEY CLEAR 51 47 86 S16 30.09R  
YORK PTCLDY 52 48 87 S7 30.13S  

 
 
NEZ011>018-030>034-042>045-141300-  
NORTHEAST NEBRASKA  
 
CITY SKY/WX TMP DP RH WIND PRES REMARKS
 
NORFOLK LGT RAIN 52 44 74 SE10 30.12S  
6HR MIN TEMP: 51; 6HR MAX TEMP: 54; 6HR PCP: 0.08;  
 
ALBION PTCLDY 49 45 87 S3 30.11S  
BLAIR CLOUDY 55 34 45 SE10 30.17S  
COLUMBUS CLOUDY 54 43 66 S9 30.14S  
FREMONT LGT RAIN 56 39 52 SE10 30.16S  
TEKAMAH CLOUDY 55 36 48 SE15 30.17F  
6HR MIN TEMP: 54; 6HR MAX TEMP: 57; 6HR PCP: TRACE;  
 
WAYNE CLOUDY 54 41 62 S16 30.12S  

 
 
NEZ050>053-065>068-078-088>093-141300-  
SOUTHEAST NEBRASKA  
 
CITY SKY/WX TMP DP RH WIND PRES REMARKS
 
LINCOLN CLOUDY 54 40 59 S12 30.17R  
6HR MIN TEMP: 54; 6HR MAX TEMP: 59;  
 
OMAHA EPPLEY CLOUDY 56 35 45 SE9 30.19R  
6HR MIN TEMP: 56; 6HR MAX TEMP: 59;  
 
BEATRICE CLOUDY 55 43 64 SE7 30.17S  
FALLS CITY MOCLDY 52 39 61 SE8 30.20S  
6HR MIN TEMP: 51; 6HR MAX TEMP: 54;  
 
NEBRASKA CITY MOCLDY 53 35 49 S9 30.19S  
PLATTSMOUTH CLOUDY 55 35 46 SE10 30.20R  

 
 
NEZ044-045-051>053-067-141300-  
OMAHA AREA  
 
CITY SKY/WX TMP DP RH WIND PRES REMARKS
 
OMAHA EPPLEY CLOUDY 56 35 45 SE9 30.19R  
6HR MIN TEMP: 56; 6HR MAX TEMP: 59;  
 
BLAIR CLOUDY 55 34 45 SE10 30.17S  
FREMONT LGT RAIN 56 39 52 SE10 30.16S  
MILLARD CLOUDY 56 37 48 SE6 30.18S  
OFFUTT AFB CLOUDY 55 34 44 S7 30.19R  
PLATTSMOUTH CLOUDY 55 35 46 SE10 30.20R  
WAHOO MOCLDY 54 38 55 SE10 30.15F  

 
 
 
CLICK HERE TO GO TO PREVIOUS BULLETINS.

The Nexlab NE Page Main Text Page